Probability
0 0 0 0 0 0 0 0 0 0 0 0 0 0 0 0 0 0 0 0 0 0 0 0 0 0 0 0 0 0 0 0 0 0 0 0 0 0
0 0 0 0 0 0 0 0 0 0 0 0 0 0 0 0 0 0 0 0 0 0 0 0 0 0 0 0 0 0 0 0 0 0 0 0 0 0
0 0 0 0 0 0 0 0 0 0 0 0 0 0 0 0 0 0 0 0 0 0 0 0 0 0 0 0 0 0 0 0 0 0 0 0 0 0
0 0 0 0 0 0 0 0 0 0 0 0 0 0 0 0 0 0 0 0 0 0 0 0 0 0 0 0 0 0 0 0 0 0 0 0 0 0
0 0 0 0 0 0 0 0 0 0 0 0 0 0 0 0 0 0 0 0 0 0 0 0 0 0 0 0 0 0 0 0 0 0 0 0 0 0
0 0 0 0 0 0 0 0 0 0 0 0 0 0 0 0 0 0 0 0 0 0 0 0 0 0 0 0 0 0 0 0 0 0 0 0 0 0
0 0 0 0 0 0 0 0 0 0 0 0 0 0 0 0 0 0 0 0 0 0 0 0 0 0 0 0 0 0 0 0 0 0 0 0 0 0
0 0 0 0 0 0 0 0 0 0 0 0 0 0 0 0 0 0 0 0 0 0 0 0 0 0 0 0 0 0 0 0 0 0 0 0 0 0
0 0 0 0 0 0 0 0 0 0 0 0 0 0 0 0 0 0 0 0 0 0 0 0 0 0 0 0 0 0 0 0 0 0 0 0 0 0
0 0 0 0 0 0 0 0 0 0 0 0 0 0 0 0 0 0 0 0 0 0 0 0 0 0 0 0 0 0 0 0 0 0 0 0 0 0
0 0 0 0 0 0 0 0 0 0 0 0 0 0 0 0 0 0 0 0 0 0 0 0 0 0 0 0 0 0 0 0 0 0 0 0 0 0
0 0 0 0 0 0 0 0 0 0 0 0 0 0 0 0 0 0 0 0 0 0 0 0 0 0 0 0 0 0 0 0 0 0 0 0 0 0
0 0 0 0 0 0 0 0 0 0 0 0 0 0 0 0 0 0 0 0 0 0 0 0 0 0 0 0 0 0 0 0 0 0 0 0 0 0
0 0 0 0 0 0 0 0 0 0 0 0 0 0 0 0 0 0 0 0 0 0 0 0 0 0 0 0 0 0 0 0 0 0 0 0 0 0
0 0 0 0 0 0 0 0 0 0 0 0 0 0 0 0 0 0 0 0 0 0 0 0 0 0 0 0 0 0 0 0 0 0 0 0 0 0
0 0 0 0 0 0 0 0 0 0 0 0 0 0 0 0 0 0 0 0 0 0 0 0 0 0 0 0 0 0 0 0 0 0 0 0 0 0
0 0 0 0 0 0 0 0 0 0 0 0 0 0 0 0 0 0 0 0 0 0 0 0 0 0 0 0 0 0 0 0 0 0 0 0 0 0
0 0 0 0 0 0 0 0 0 0 0 0 0 0 0 0 0 0 0 0 0 0 0 0 0 0 0 0 0 0 0 0 0 0 0 0 0 0
0 0 0 0 0 0 0 0 0 0 0 0 0 0 0 0 0 0 0 0 0 0 0 0 0 0 0 0 0 0 0 0 0 0 0 0 0 0
0 0 0 0 0 0 0 0 0 0 0 0 0 0 0 0 0 0 0 0 0 0 0 0 0 0 0 0 0 0 0 0 0 0 0 0 0 0
0 0 0 0 0 0 0 0 0 0 0 0 0 0 0 0 0 0 0 0 0 0 0 0 0 0 0 0 0 0 0 0 0 0 0 0 0 0
0 0 0 0 0 0 0 0 0 0 0 0 0 0 0 0 0 0 0 0 0 0 0 0 0 0 0 0 0 0 0 0 0 0 0 0 0 0
0 0 0 0 0 0 0 0 0 0 0 0 0 0 0 0 0 0 0 0 0 0 0 0 0 0 0 0 0 0 0 0 0 0 0 0 0 0
Wind_Speed
4 4 4 4 4 4 4 4 5 7 7 4 3 3 3 3 4 4 4 6 7 8 8 8 8 8 9 9 10 11 11 12 11 12 11 11 12 12
3 3 4 4 4 4 4 4 5 7 8 4 3 3 3 3 4 4 5 7 7 7 7 8 8 8 9 9 10 11 11 12 12 11 11 11 12 13
3 3 4 4 4 4 4 4 5 5 8 6 3 2 3 4 4 4 4 4 4 7 8 8 8 8 8 9 10 10 10 10 10 10 11 11 12 13
5 4 5 4 4 4 4 5 5 5 6 9 5 3 4 4 4 5 4 3 4 7 8 9 8 8 8 9 9 9 9 9 9 9 10 11 12 12
5 5 5 5 5 5 5 5 5 5 5 6 6 4 3 3 4 4 4 4 4 5 7 8 8 8 9 9 8 8 9 8 8 9 10 10 11 12
4 4 4 4 5 5 5 5 5 5 5 5 5 4 3 3 3 3 4 3 4 4 5 6 6 7 8 9 9 8 8 8 9 9 9 10 10 11
5 4 5 5 6 5 5 5 5 4 4 4 5 4 4 3 3 3 5 4 5 3 3 4 4 4 4 7 8 8 8 9 9 9 9 10 10 11
6 5 5 5 7 8 8 7 5 4 4 4 4 5 6 4 4 4 4 4 5 2 3 5 3 5 5 4 8 9 9 9 9 9 9 10 10 11
5 5 5 5 5 5 7 7 6 6 6 5 5 6 5 5 4 5 5 5 6 3 3 5 3 5 4 5 9 9 9 9 9 9 9 10 10 11
5 5 6 6 6 6 5 5 5 5 5 4 4 5 5 4 4 5 5 5 5 3 2 4 3 4 4 4 8 8 8 8 8 8 9 10 10 10
6 5 5 6 8 8 6 6 6 5 5 5 6 5 6 6 5 3 3 3 4 3 1 3 3 4 3 3 5 6 6 7 7 8 9 9 9 9
5 5 6 7 8 8 5 5 6 6 5 5 5 5 4 5 6 3 3 3 3 4 2 2 2 2 4 3 3 3 4 5 7 8 9 9 10 6
5 5 5 9 10 9 7 5 7 6 4 4 4 4 3 3 3 3 3 3 3 4 2 2 2 2 2 4 3 3 3 4 5 6 7 10 10 8
6 5 6 10 10 10 7 7 8 6 3 3 3 3 3 3 3 3 3 3 3 4 4 2 2 2 3 3 4 3 3 3 4 5 5 8 8 9
6 9 10 11 10 7 7 8 5 2 2 2 3 3 3 3 3 3 3 3 3 3 3 3 3 3 3 3 4 3 4 4 3 4 5 5 5 5
6 7 9 10 8 6 5 4 3 2 2 3 3 3 3 3 3 3 3 3 3 3 3 3 3 3 3 4 4 4 4 4 4 5 6 6 5 5
6 4 3 3 3 3 3 2 2 2 2 2 2 2 3 3 3 2 2 2 2 3 4 4 3 3 3 3 3 3 4 4 4 5 6 6 6 5
6 4 4 3 4 4 3 3 3 2 2 2 2 2 3 3 3 3 2 2 2 3 3 4 4 4 3 2 2 3 3 4 5 5 5 6 7 6
4 4 4 4 4 3 3 3 3 3 3 2 2 2 2 2 2 2 2 2 2 3 3 3 2 2 3 5 4 2 3 5 5 5 5 5 7 8
3 4 4 4 4 3 3 3 3 3 2 2 3 2 2 2 2 2 2 2 2 3 3 2 2 2 2 4 5 6 7 6 5 6 6 6 6 9
4 4 4 4 4 3 3 3 3 3 3 3 2 2 2 1 2 2 2 2 2 2 3 4 3 4 3 2 3 5 5 7 8 6 7 6 6 5
4 4 4 4 3 3 3 3 3 3 2 2 2 2 2 2 2 2 2 2 2 2 3 4 4 3 2 2 4 6 7 7 8 10 9 8 5 5
4 4 4 4 3 3 3 3 3 2 2 2 2 2 2 2 2 2 2 2 2 2 3 3 3 2 2 2 4 5 7 8 6 6 6 9 10 12
Wind_Direction
309 294 279 273 268 267 266 263 265 279 276 263 261 265 259 255 266 262 261 266 261 258 260 264 268 272 275 277 280 282 283 285 285 284 281 280 281 281
309 314 306 295 286 273 264 263 259 265 274 279 266 276 280 280 283 274 269 275 267 266 265 266 268 273 276 279 281 282 284 284 284 282 282 282 282 282
312 310 304 309 300 290 279 270 266 261 270 281 281 280 274 278 287 279 273 269 272 267 267 265 266 270 274 279 280 282 283 283 282 282 283 284 283 284
305 305 303 305 304 299 297 285 276 270 268 278 282 279 275 278 281 278 278 274 269 271 267 265 268 271 273 276 280 283 282 282 282 284 286 287 288 285
301 302 305 307 302 301 298 293 289 281 268 270 277 277 276 282 286 281 279 275 276 280 275 270 272 277 277 278 280 282 283 283 284 285 286 288 289 288
317 316 313 311 306 305 300 299 297 291 280 273 277 279 277 281 282 281 287 280 283 286 282 282 282 282 281 281 280 280 282 283 283 285 287 290 290 290
319 316 315 316 314 309 303 304 307 301 297 291 284 285 280 283 281 280 278 287 280 265 277 276 280 281 284 284 283 282 284 285 284 284 286 289 290 291
315 313 310 313 317 317 313 308 303 298 299 295 292 287 288 288 291 283 284 286 279 263 269 271 261 267 267 263 274 279 281 283 284 285 286 288 291 292
305 309 310 314 312 312 316 315 310 305 293 282 283 285 288 289 287 282 278 277 275 284 284 274 261 262 265 269 273 273 279 282 284 288 292 295 297 298
302 302 305 312 314 314 312 311 309 310 307 298 285 287 292 295 285 279 280 284 282 282 272 270 278 273 284 279 280 278 282 286 293 300 302 301 301 302
304 302 301 301 308 315 309 305 305 306 313 308 302 303 307 312 312 302 297 294 290 285 292 273 284 293 285 276 285 291 292 294 300 306 307 306 308 310
300 298 294 299 304 307 301 297 296 300 309 315 319 323 321 321 327 310 287 280 283 279 300 302 289 315 302 291 300 306 305 304 310 310 310 310 311 310
295 295 292 297 299 301 300 291 291 298 297 299 303 307 312 317 324 323 311 280 270 267 291 307 283 292 272 297 308 308 312 314 312 307 309 311 311 310
290 290 290 296 297 298 298 295 298 300 293 291 293 299 305 311 316 317 313 308 288 275 292 300 272 278 284 287 290 308 321 317 314 311 313 314 313 312
290 290 295 297 297 294 299 302 303 293 286 287 288 292 299 301 310 315 322 321 315 304 306 308 285 275 262 262 279 292 310 313 313 315 315 313 309 308
295 293 293 295 296 300 305 304 302 290 281 279 287 293 304 310 313 318 314 321 318 311 315 319 304 286 270 267 263 278 291 294 314 316 312 305 303 299
295 294 292 295 296 297 301 306 307 307 300 297 288 296 302 308 310 317 310 316 309 310 322 335 333 309 280 271 274 277 293 299 303 314 316 308 301 299
298 281 281 282 283 284 285 292 293 292 296 295 289 289 294 299 307 312 317 317 311 311 316 327 340 345 345 320 264 281 298 300 306 310 307 303 302 305
289 278 275 275 275 274 273 275 280 284 288 284 284 286 289 293 297 303 315 324 316 309 310 318 333 348 334 314 312 324 310 308 309 309 306 298 295 301
270 271 273 272 269 265 266 269 276 285 284 283 281 276 271 275 282 287 296 304 306 310 313 315 317 319 291 286 294 302 313 306 309 306 306 304 292 294
278 272 270 271 268 260 258 260 263 268 271 271 272 274 273 271 276 280 286 290 294 296 299 304 310 314 301 297 292 294 302 317 317 305 304 303 307 308
277 275 274 270 265 258 255 256 261 263 266 267 268 273 271 264 265 269 270 278 284 283 290 301 315 324 319 294 290 296 304 313 321 322 312 299 296 302
281 280 275 267 257 252 247 246 250 258 259 259 261 266 265 266 271 271 272 272 283 294 304 312 323 328 313 292 292 297 302 310 317 324 316 317 314 304